SL-12 DEB, 41681

Orbit data source: Space-Track

SL-12 DEB, 41681 is space debris in HEO originally from a launch on Fri, 26 Oct 2007 UTC launched from the Tyuratam Missile And Space Complex (TTMTR). Debris objects in space refer to the collection of defunct objects orbiting the Earth. Examples of debris include non-operational satellites, rocket bodies, and fragments generated from explosions, collisions, or faulty payload assembly.

Loading next visibility...
Identifier
41681, 2007-052N
Orbit
HEO
Country
Flag of CISCIS
Related business
Manufacturer
RKKE
Mission
Spacecraft
Bus & Motor
Unknown
Mass
Unknown
Launch date (UTC)
2007-10-26 (18 years ago)
Launch vehicle
Unknown
Launch site
Tyuratam Missile And Space Complex (TTMTR)
Object type
Payload
Rocket body
Debris
Shape & HBR
Unknown shape, 0.2 m
Radar Cross Section
Medium (>0.1 m² and <1 m²)

Expand to show TLE details & history
Last TLE update: 1 day ago

TLE from 1 day ago
0 SL-12 DEB
1 41681U 07052N   26035.87316688  .00001855  00000-0  14076-2 0  9996
2 41681  64.9751 232.9335 5703105 204.3822 112.1948  4.39155778183134
Epoch: 2026-02-04T20:57Z
TLE epoch observation values (Epoch: 2026-02-04T20:57:21.618Z)
Latitude
0.00005°
Longitude
143.55498°
Altitude
15,748.222 km
Speed
3.275 km/s
True Right ascension
15h 31m 42s
True Declination
0° 00' 00"
Sunlit
Object was in daylight at epoch
Visualization orbit readout
Latitude
Unknown
Longitude
Unknown
Altitude
Unknown
Speed
Unknown
Apparent Right ascension
Unknown
Apparent Declination
Unknown
Sunlit
N/A
Visualization observer readout
Local Sidereal Time
00:28:40
Azimuth
Unknown
Elevation
Unknown
Doppler factor
Unknown
Orbital elements
Apogee altitude
18,354.838 km
Perigee altitude
389.633 km
Semi-major axis
15,750.372 km
Eccentricity
0.57031
Inclination
64.9751°
RAAN
232.9335°
Arg. of periapsis
204.3822°
True anomaly
155.67405°
Mean anomaly
112.1948°
Eccentric anomaly
135.21402°
Mean motion
1.09801 °/min
Orbital period
327.87 mins
BSTAR
0.0014076
Loading maneuver chart data...
Computing Atmospheric mass density...
Loading historical data...
Loading historical data...
Loading historical data...
Loading historical data...
Loading historical data...
Loading historical data...
Loading historical data...

Documentation

Showing up to 5 results
|